User: anonymous   Login
Location: Ch�tillon
(48.8024°N, 2.2935°E)
Time: 14:21:56
(UTC+00:00)
Language:

Max Valier Satellite - Orbit

View from above orbital plane
View from above orbital plane
View from above satellite
View from above satellite

Ground track
Ground track

The orbit data is extracted from the following two-line orbital elements,

1 42778U 17036P   22176.84201197  .00006437  00000-0  24432-3 0  9993
2 42778  97.2046 217.6549 0008816 300.4693  59.5675 15.27134543278188
Epoch (UTC): 25 June 2022 20:12:29
Eccentricity: 0.0008816
inclination: 97.2046°
perigee height: 478 km
apogee height: 490 km
right ascension of ascending node: 217.6549°
argument of perigee: 300.4693°
revolutions per day: 15.27134543
mean anomaly at epoch: 59.5675°
orbit number at epoch: 27818

The dashed part of the orbit path shows where the satellite is in the earth's shadow,  

DLR